Back to catalog

COSMOS 1943

AliveNavigationLEO
NORAD 19119·PAYLOAD·🇷🇺 Russia

Launched May 15, 1988 from Baikonur Cosmodrome

Loading…

Next Passes (next 24 hours)

TLE

FreshSource: Space-Track

Epoch: Sep 14, 2026, 15:32 UTC

1 19119U 88039A   26257.64735142  .00000274  00000-0  16369-3 0  9994
2 19119  71.0027 208.6673 0013049 312.7490 219.8406 14.15776035979559

Track COSMOS 1943 in real time with AllMySat

Download on the App Store